This demonstration page uses our WeatherBlox Daily Observations layout. Learn more.

Left ArrowRight Arrow

38.89511, -77.03637

Hourly Observations for June 1, 2015

Temp ( °F °C ) Dew Point ( °F °C ) Humidity (%) Winds ( mph kmh ) Pressure ( in mb ) Visibility ( mi km ) Precip ( " mm )
12:52 am 00:52 Mostly Cloudy 78 25.6 68 20 71 71 S 13 20 30.01 1016 10 16 N/A
1:52 am 01:52 Cloudy with Light Rain 78 25.6 69 20.6 74 74 SSW 12 19 30.00 1016 10 16 N/A
2:52 am 02:52 Mostly Cloudy 76 24.4 68 20 77 77 S 12 19 30.00 1016 10 16 0.01 0.25
3:52 am 03:52 Cloudy 76 24.4 68 20 77 77 S 9 15 29.99 1016 10 16 N/A
4:52 am 04:52 Cloudy with Light Rain 76 24.4 68 20 77 77 SSW 8 13 30.00 1016 10 16 N/A
5:52 am 05:52 Mostly Cloudy 75 23.9 68 20 79 79 WSW 3 6 30.01 1016 10 16 N/A
6:52 am 06:52 Mostly Cloudy 75 23.9 69 20.6 82 82 WSW 5 7 30.02 1017 10 16 N/A
7:52 am 07:52 Mostly Cloudy 77 25 68 20 74 74 SSW 6 9 30.03 1017 10 16 N/A
8:52 am 08:52 Mostly Cloudy 79 26.1 68 20 69 69 SW 8 13 30.03 1017 10 16 N/A
9:52 am 09:52 Mostly Cloudy 82 27.8 69 20.6 65 65 S 7 11 30.03 1017 10 16 N/A
10:52 am 10:52 Cloudy 83 28.3 70 21.1 65 65 S 8 13 30.02 1017 10 16 N/A
11:52 am 11:52 Cloudy 85 29.4 70 21.1 61 61 S 9 15 30.01 1016 10 16 N/A
12:52 pm 12:52 Cloudy 88 31 70 21 55 55 S 10 17 30.00 1016 10 16 N/A
1:52 pm 13:52 Mostly Cloudy 90 32.2 67 19.4 47 47 S 13 20 29.98 1015 10 16 N/A
2:52 pm 14:52 Partly Cloudy 91 32.8 66 18.9 44 44 S 9 15 29.96 1015 10 16 N/A
3:52 pm 15:52 Mostly Cloudy 91 32.8 67 19.4 45 45 SSE 12 19 29.93 1014 10 16 N/A
4:01 pm 16:01 Mostly Cloudy with Thunderstorms 91 33 66 19 44 44 S 13 20 29.94 1014 10 16 N/A
4:20 pm 16:20 Mostly Cloudy with Thunderstorms 82 28 66 19 58 58 NNW 17 28 29.94 1014 10 16 N/A
4:25 pm 16:25 Mostly Cloudy with Strong Thunderstorms 79 26 70 21 74 74 VRB 7 11 29.94 1014 3 5 0.01 0.25
4:32 pm 16:32 Mostly Cloudy with Thunderstorms 81 27 70 21 70 70 ESE 7 11 29.94 1014 7 11 N/A
4:52 pm 16:52 Mostly Cloudy with Thunderstorms 81 27.2 71 21.7 72 72 NNE 6 9 29.94 1014 10 16 0.05 1.27
4:59 pm 16:59 Mostly Cloudy 82 28 70 21 66 66 N 3 6 29.94 1014 10 16 N/A
5:23 pm 17:23 Mostly Cloudy with Light Rain 82 28 70 21 66 66 W 6 9 29.91 1013 10 16 N/A
5:26 pm 17:26 Mostly Cloudy with Light Rain 82 28 70 21 66 66 W 10 17 29.94 1014 4 6 N/A
5:29 pm 17:29 Partly Cloudy with Heavy Rain 81 27 70 21 70 70 W 7 11 29.94 1014 2 3 0.02 0.51
5:34 pm 17:34 Mostly Cloudy with Strong Thunderstorms 79 26 68 20 70 70 SSW 20 31 29.94 1014 1 2 0.09 2.29
5:37 pm 17:37 Mostly Cloudy with Strong Thunderstorms 79 26 66 19 65 65 SSW 23 37 29.94 1014 1 1 0.16 4.06
5:42 pm 17:42 Mostly Cloudy with Strong Thunderstorms 79 26 63 17 58 58 ENE 15 24 29.91 1013 7 11 N/A
5:47 pm 17:47 Mostly Cloudy with Thunderstorms 82 28 64 18 55 55 E 8 13 29.91 1013 8 13 0.48 12.19
5:52 pm 17:52 Mostly Cloudy with Thunderstorms 83 28.3 66 18.9 57 57 ENE 12 19 29.92 1013 8 13 0.48 12.19
5:57 pm 17:57 Mostly Cloudy 82 28 66 19 58 58 E 7 11 29.94 1014 10 16 N/A
6:14 pm 18:14 Mostly Cloudy with Thunderstorms 81 27 72 22 74 74 ESE 3 6 29.94 1014 10 16 N/A
6:26 pm 18:26 Mostly Cloudy with Thunderstorms 81 27 72 22 74 74 SW 17 28 29.94 1014 3 4 N/A
6:28 pm 18:28 Windy with Storms Likely 79 26 72 22 79 79 SW 30 48 29.94 1014 1 1 N/A
6:31 pm 18:31 Mostly Cloudy with Strong Thunderstorms 75 24 70 21 83 83 SW 24 39 29.97 1015 1 1 0.17 4.32
6:37 pm 18:37 Mostly Cloudy with Strong Thunderstorms 73 23 66 19 78 78 SSW 22 35 29.97 1015 0 0 0.48 12.19
6:43 pm 18:43 Cloudy with Strong Thunderstorms 73 23 66 19 78 78 S 29 46 29.97 1015 0 0 0.79 20.07
6:45 pm 18:45 Cloudy with Strong Thunderstorms 72 22 66 19 83 83 S 22 35 29.97 1015 0 0 0.87 22.10
6:50 pm 18:50 Cloudy with Strong Thunderstorms 75 24 66 19 74 74 ENE 16 26 29.94 1014 0 0 N/A
6:52 pm 18:52 Cloudy with Strong Thunderstorms 74 23.3 66 18.9 76 76 NE 13 20 29.95 1014 0 0 1.42 36.07
6:55 pm 18:55 Cloudy with Thunderstorms 73 23 66 19 78 78 NNE 10 17 29.97 1015 5 8 0.09 2.29
6:59 pm 18:59 Mostly Cloudy with Thunderstorms 73 23 66 19 78 78 NNE 8 13 29.97 1015 8 13 0.09 2.29
7:07 pm 19:07 Mostly Cloudy 75 24 68 20 78 78 E 7 11 29.97 1015 10 16 0.09 2.29
7:13 pm 19:13 Cloudy 73 23 66 19 78 78 ESE 6 9 29.97 1015 10 16 0.09 2.29
7:52 pm 19:52 Mostly Cloudy 75 23.9 68 20 79 79 N 10 17 29.98 1015 10 16 0.09 2.29
8:32 pm 20:32 Mostly Cloudy 75 24 68 20 78 78 NW 16 26 30.00 1016 10 16 N/A
8:44 pm 20:44 Mostly Cloudy with Light Rain 73 23 66 19 78 78 NNW 13 20 30.00 1016 8 13 N/A
8:52 pm 20:52 Mostly Cloudy with Thunderstorms 72 22.2 66 18.9 82 82 NNW 16 26 30.01 1016 5 8 0.02 0.51
8:59 pm 20:59 Cloudy with Strong Thunderstorms 72 22 66 19 83 83 N 12 19 30.00 1016 3 5 0.06 1.52
9:01 pm 21:01 Cloudy with Strong Thunderstorms 72 22 66 19 83 83 N 8 13 30.00 1016 3 4 0.07 1.78
9:05 pm 21:05 Cloudy with Strong Thunderstorms 72 22 66 19 83 83 N 9 15 30.00 1016 3 5 0.10 2.54
9:12 pm 21:12 Cloudy with Light Rain 72 22 68 20 88 88 N 12 19 30.00 1016 7 11 N/A
9:31 pm 21:31 Mostly Cloudy 73 23 68 20 83 83 NE 8 13 30.00 1016 10 16 0.11 2.79
9:52 pm 21:52 Mostly Cloudy 72 22.2 68 20 87 87 E 5 7 30.01 1016 10 16 0.11 2.79
10:52 pm 22:52 Cloudy with Light Rain 73 22.8 67 19.4 81 81 N N/A 30.03 1017 10 16 N/A
10:57 pm 22:57 Cloudy with Rain 73 23 66 19 78 78 S 5 7 30.03 1017 3 5 0.01 0.25
11:52 pm 23:52 Cloudy with Light Rain 72 22.2 68 20 87 87 ESE 8 13 30.03 1017 7 11 0.26 6.60

Powered by AerisWeather